Theta_e
337 336 338 338 340 339 341 340 341 344 341 341 342 341 341 341 344 345 350 342 341 343 344 345 346 345 344 343 343 341 341 339 338 338 337 337 336 336 334 331 329 331 334
337 338 339 339 340 340 339 340 341 341 342 341 342 341 342 342 340 345 348 344 343 344 345 345 343 343 344 346 344 343 342 341 340 339 338 338 339 338 338 338 335 331 331
338 339 339 340 340 340 340 339 341 341 341 340 342 342 341 341 345 350 349 348 345 344 343 342 342 341 342 344 345 344 343 342 342 340 339 338 339 338 337 337 338 336 336
341 342 340 340 340 340 339 339 341 339 339 338 339 341 344 348 348 348 347 346 344 341 340 338 338 339 340 339 340 341 342 341 340 339 339 340 339 339 339 339 338 338 337
341 343 341 340 341 341 340 339 339 338 338 338 340 346 345 344 345 344 341 341 339 338 336 334 334 334 333 331 332 333 333 333 333 334 336 336 336 335 337 336 336 335 335
341 342 342 341 342 341 340 340 340 339 339 339 342 343 342 342 342 339 338 337 336 334 333 331 331 328 328 327 326 325 325 330 330 329 330 331 330 329 327 329 327 328 328
342 341 342 341 345 343 341 342 342 343 342 339 340 338 336 337 340 337 336 335 333 331 332 332 329 326 324 323 323 322 320 320 320 320 321 322 322 322 322 322 321 321 321
342 341 342 341 342 343 343 343 344 342 342 339 341 337 336 332 334 336 336 334 332 330 329 328 326 324 324 320 319 318 318 317 318 318 318 318 318 317 317 317 317 317 315
342 342 342 342 343 343 342 343 344 344 340 340 340 338 338 339 333 330 331 331 329 327 324 322 321 321 319 316 315 314 315 316 316 315 316 316 316 315 315 315 315 315 315
343 342 342 342 343 342 342 341 344 344 343 340 340 339 337 337 336 333 330 328 326 324 322 319 318 318 318 317 314 310 311 311 311 313 314 314 314 314 314 313 313 312 311
337 338 340 341 341 342 341 341 341 342 342 341 339 338 338 337 336 332 332 327 325 323 320 318 317 316 316 316 314 307 304 307 308 311 313 313 314 313 312 310 308 308 308
338 337 337 338 339 339 339 339 339 339 339 339 339 337 337 336 335 334 332 328 325 323 319 317 316 316 315 315 313 305 302 301 300 300 303 309 310 308 304 303 305 305 306
335 334 333 333 333 333 332 333 332 333 334 335 336 337 336 335 334 333 329 328 325 322 317 315 315 315 314 312 310 309 300 299 299 299 300 301 301 300 300 299 299 301 302
331 331 330 328 327 327 327 327 327 327 329 330 331 331 334 333 332 330 330 326 326 321 317 315 313 313 313 312 308 308 308 302 297 297 298 299 299 299 298 298 297 295 295
321 320 319 321 322 319 320 321 320 320 320 320 323 325 325 326 324 324 325 325 322 321 318 313 311 310 311 309 303 305 309 305 297 295 295 296 297 298 297 295 295 295 295
313 312 311 311 310 312 312 312 312 312 314 313 312 315 316 318 320 321 322 322 321 320 320 314 311 308 309 309 304 306 306 303 301 302 299 296 296 296 295 295 295 295 295
308 308 308 308 308 308 307 308 308 307 308 308 309 309 310 312 315 317 319 321 321 318 320 314 310 307 308 308 305 305 306 306 306 305 303 301 298 296 295 295 295 295 294
306 305 305 305 304 304 304 305 305 304 304 304 305 306 308 309 310 312 315 315 315 314 313 313 308 307 308 308 308 309 308 307 306 305 303 303 300 300 298 296 295 295 295
305 304 304 304 303 303 303 303 303 302 301 302 303 304 306 307 307 307 309 310 311 311 310 310 309 309 309 309 309 309 309 309 309 307 305 303 302 301 300 299 299 299 299
304 304 303 303 303 302 302 302 301 301 300 300 300 301 302 302 304 304 306 309 309 310 310 310 309 309 308 309 309 310 311 311 310 308 307 306 304 302 301 301 301 300 300
303 302 301 301 301 301 301 301 300 300 300 300 301 301 303 303 305 306 306 306 306 308 308 309 309 309 309 310 310 309 310 310 309 308 307 305 304 304 303 303 303 302 301
305 304 303 302 302 302 300 300 300 299 300 301 302 302 304 304 305 306 307 309 309 309 308 308 309 309 310 310 310 310 310 309 308 306 305 304 303 303 303 303 303 301 300
306 306 305 303 303 303 300 301 302 303 303 304 304 305 304 305 304 305 306 307 308 309 310 311 311 311 311 311 311 311 311 309 308 307 304 303 303 304 303 302 302 301 300
306 306 306 305 305 303 302 303 303 304 304 304 305 304 304 304 305 306 305 305 306 306 306 307 307 310 311 310 310 310 309 308 306 304 303 305 304 303 302 302 301 300 300
305 306 306 305 304 303 302 300 302 303 304 303 304 305 306 306 307 307 308 308 309 309 309 309 310 309 309 308 307 306 304 303 302 301 303 303 302 302 302 302 301 300 300
302 302 303 303 303 304 302 302 302 304 305 305 305 306 306 307 308 307 305 307 309 310 310 308 307 306 304 304 303 302 302 301 300 302 302 303 302 302 302 301 301 301 301
Wind_Speed
15 16 13 14 12 14 13 11 10 6 8 10 3 2 4 6 8 13 7 14 8 5 5 5 6 8 10 10 9 9 9 8 8 7 6 5 5 4 3 2 2 3 3
16 16 14 14 14 14 12 13 10 9 11 12 8 5 2 5 6 12 13 11 5 5 5 2 1 2 5 8 9 9 10 9 8 8 8 7 7 6 6 5 4 3 3
17 17 17 15 16 13 15 12 11 11 12 9 4 4 8 5 2 8 7 11 8 6 7 9 7 8 8 4 3 6 7 8 8 8 8 9 8 7 6 5 6 5 5
19 20 18 17 17 16 17 14 11 13 15 13 10 6 2 7 5 9 9 12 14 14 12 9 11 11 11 14 12 11 10 8 7 6 4 4 4 5 4 3 3 3 3
23 20 21 19 16 17 16 16 16 17 15 13 8 7 4 3 4 7 8 12 14 12 13 10 10 12 13 13 10 7 9 12 13 12 11 9 10 10 9 8 7 5 4
24 24 21 22 19 19 20 19 18 18 17 15 10 9 8 8 10 9 13 12 12 10 11 12 10 12 14 13 13 13 10 3 5 6 5 5 6 7 11 8 11 6 5
23 23 23 22 19 21 23 19 18 15 17 15 16 9 7 6 7 12 13 12 13 11 9 8 8 8 9 12 12 12 12 12 12 12 11 12 12 12 12 12 11 10 8
23 25 25 25 24 23 21 18 20 20 19 19 16 14 6 6 10 11 12 15 15 11 10 9 8 8 11 7 9 11 12 12 11 11 11 12 11 11 11 12 11 11 11
22 24 23 27 21 25 24 22 22 23 22 20 23 15 6 7 17 12 15 16 15 13 12 11 11 10 10 9 8 10 11 11 10 9 10 10 10 10 10 10 10 9 8
16 20 23 23 23 23 27 24 25 26 25 21 22 26 23 4 7 7 15 13 15 14 13 12 12 10 12 12 12 9 9 9 9 8 8 8 8 8 8 8 7 7 8
22 21 21 22 23 23 24 24 25 27 26 27 22 23 26 15 17 12 10 16 16 16 16 15 14 13 11 11 10 8 7 6 7 8 8 7 8 7 7 7 7 7 8
19 23 22 22 21 22 22 20 20 23 25 23 26 23 24 22 21 17 8 20 19 20 16 14 14 14 12 11 11 8 8 6 5 5 5 5 5 4 1 3 6 7 8
20 18 21 25 28 26 20 21 20 20 17 23 23 24 26 26 24 23 14 19 19 18 18 15 16 15 14 12 10 9 6 5 4 4 5 5 5 4 4 7 7 8 9
28 30 27 27 26 28 24 24 21 18 22 18 21 23 19 19 18 17 21 21 11 18 16 14 15 15 14 12 13 13 8 1 3 4 4 5 6 6 7 7 10 11 10
14 16 18 24 29 26 26 27 24 21 16 13 13 16 20 18 18 13 19 21 23 9 10 18 14 14 13 13 12 9 8 4 2 2 4 6 7 7 8 10 11 10 10
11 11 14 14 16 16 19 18 16 14 15 9 3 6 10 12 17 15 8 10 18 16 9 23 18 16 12 12 10 10 8 5 4 4 5 5 7 9 11 12 12 12 13
5 7 9 11 11 13 11 14 16 13 18 12 13 10 7 4 7 10 15 17 13 10 8 21 16 18 13 9 7 7 6 4 8 8 9 10 10 12 13 13 14 14 16
5 6 8 9 11 13 17 20 20 20 24 20 16 19 16 14 13 8 12 13 13 4 23 18 20 15 13 10 9 8 6 6 7 11 10 14 13 12 13 14 16 18 19
9 9 10 12 14 15 16 17 20 21 22 23 21 21 21 20 16 13 15 11 15 18 19 14 13 14 12 13 10 8 9 9 9 12 16 13 12 14 16 16 16 17 20
11 11 11 12 13 13 14 14 14 15 14 14 12 10 7 8 3 9 9 8 8 11 11 13 14 14 16 15 10 11 11 10 11 10 12 16 18 19 20 19 19 20 22
10 11 12 11 11 14 15 15 14 15 17 17 17 16 13 15 15 15 14 11 11 9 13 13 13 13 13 13 14 14 13 9 11 13 15 15 14 16 18 20 22 23 22
11 12 12 12 11 9 13 14 16 16 14 12 14 15 13 12 12 14 14 16 11 12 14 14 13 15 15 9 7 9 12 12 13 12 13 16 16 19 20 20 20 24 29
12 13 14 12 13 11 15 15 15 14 14 13 14 12 13 13 14 14 14 17 14 12 9 9 7 3 5 8 11 9 11 13 16 15 16 20 19 21 21 22 23 24 27
10 13 12 13 14 14 13 11 11 9 10 9 9 9 11 14 15 13 11 10 10 11 12 11 12 11 11 11 11 12 13 15 17 19 19 21 19 23 23 23 24 29 32
5 6 8 8 13 15 15 14 14 11 9 9 10 11 9 10 10 14 10 12 13 13 12 14 15 16 15 15 14 12 16 17 18 18 17 20 21 24 25 25 27 31 34
11 7 5 7 10 12 11 10 11 8 7 6 6 7 11 11 11 14 17 13 13 15 16 16 17 14 19 24 22 21 17 18 20 20 18 18 22 22 28 27 27 29 32
Wind_Direction
208 210 211 214 198 197 196 206 214 164 202 226 336 223 251 280 202 97 130 124 149 174 192 208 241 257 256 249 244 235 228 222 223 228 232 233 233 229 227 219 195 202 224
215 214 213 217 219 216 208 208 209 189 217 222 167 229 253 255 286 359 81 101 136 151 153 134 116 265 251 258 248 247 245 236 228 229 231 238 239 245 251 254 260 247 239
216 220 217 211 224 223 227 208 182 197 227 226 188 175 234 226 96 85 91 116 122 140 121 109 103 79 66 78 195 222 233 236 226 232 235 241 245 242 249 247 251 264 264
221 213 223 218 222 219 223 215 197 206 220 216 210 224 145 77 91 106 111 115 125 111 112 105 93 90 91 89 111 121 145 174 193 200 202 214 237 240 210 169 199 213 253
213 213 222 223 219 223 222 219 208 217 212 225 190 138 128 155 149 130 133 151 124 118 112 109 102 98 93 78 82 99 121 116 120 116 137 139 125 115 156 136 156 120 109
218 213 218 229 213 221 225 220 226 216 224 208 164 139 152 185 165 149 167 147 153 136 118 110 94 92 93 88 84 79 78 119 103 105 115 116 109 86 82 95 82 100 88
217 221 221 223 220 221 233 215 219 220 220 210 132 139 146 190 167 170 166 164 147 154 151 152 148 130 109 107 95 87 81 84 84 86 83 90 91 94 91 82 77 68 69
218 218 221 230 216 225 235 226 212 212 218 214 190 180 176 203 204 190 179 172 171 166 166 165 152 145 139 111 111 102 95 93 96 96 92 87 83 82 80 85 79 74 66
223 225 223 224 227 213 232 216 215 217 211 214 204 212 212 221 172 194 186 186 177 179 172 162 157 154 138 128 112 99 98 99 94 91 96 99 103 93 76 68 70 67 56
221 228 233 229 237 225 230 219 218 221 225 217 207 235 245 94 188 174 197 185 181 179 177 175 160 161 153 139 138 131 111 99 103 106 110 102 101 94 81 70 66 47 28
223 229 236 234 235 232 234 238 223 223 227 230 208 214 235 228 223 186 175 180 196 192 183 179 172 172 163 149 142 145 138 121 103 101 105 117 118 98 83 60 34 21 17
214 209 216 230 228 228 229 234 238 232 232 238 242 218 223 217 219 215 183 172 189 189 185 188 177 178 167 151 148 150 147 148 147 138 138 133 129 118 78 9 9 358 355
215 200 205 208 216 220 219 215 219 232 234 248 252 251 226 222 229 217 192 178 179 183 177 188 192 185 168 164 158 148 162 166 175 182 182 202 223 241 285 311 324 327 331
220 216 212 212 210 211 209 211 216 219 225 239 245 249 257 225 221 230 223 178 165 170 176 192 192 188 176 173 175 171 176 186 213 221 227 236 253 275 295 307 313 316 317
212 213 214 219 215 214 213 211 206 208 216 234 233 243 254 246 231 209 213 196 167 165 184 189 179 197 185 181 182 162 177 207 248 264 269 257 264 281 298 306 308 310 311
217 210 205 204 203 192 202 191 185 180 173 153 106 186 235 238 214 201 194 163 178 178 182 169 184 185 189 184 188 160 186 234 245 298 302 287 283 289 294 297 297 300 302
234 210 205 205 202 188 178 172 155 138 133 128 144 109 83 133 218 172 183 187 183 235 208 138 156 162 194 187 194 180 203 199 250 268 282 296 295 292 291 287 290 295 297
128 148 165 142 134 138 146 149 144 138 126 109 108 106 99 95 70 98 120 126 110 82 123 144 134 162 193 208 209 209 216 231 236 261 266 294 298 296 293 283 287 290 292
110 115 124 113 120 122 125 127 125 123 120 119 111 99 91 85 67 58 85 102 87 116 127 128 150 175 195 203 213 231 233 240 254 254 269 273 282 283 284 291 297 300 306
128 122 134 134 123 129 130 126 122 117 120 121 124 122 114 112 60 37 32 40 87 126 161 155 181 186 196 198 215 239 221 231 248 256 261 271 270 275 286 291 291 288 293
140 135 133 138 142 132 133 134 125 121 120 123 124 124 130 142 153 167 174 170 177 166 171 178 183 192 195 184 207 227 228 264 264 259 267 268 261 269 273 286 288 287 287
168 161 156 152 151 148 165 152 139 138 143 155 151 152 158 163 165 164 179 171 190 169 188 194 199 207 213 200 245 252 250 251 263 263 266 272 270 274 279 279 281 281 282
185 179 170 164 165 158 160 164 168 166 168 178 159 164 159 173 181 186 187 189 184 191 194 212 262 245 237 230 248 269 264 263 260 270 280 276 275 276 276 280 284 286 286
194 175 177 174 169 165 169 173 157 162 165 161 156 163 182 185 195 191 193 195 203 220 227 230 241 250 262 264 258 261 266 275 272 267 260 262 274 275 283 284 286 288 288
90 143 137 157 162 154 170 165 166 166 168 183 198 203 199 189 193 199 204 210 218 228 240 242 236 243 250 256 246 256 261 262 272 278 274 278 285 291 291 289 289 288 290
247 237 191 176 184 166 163 173 197 213 198 207 214 235 229 222 218 221 222 229 240 245 240 232 236 260 258 257 255 253 257 269 273 275 279 291 290 294 295 288 289 293 292